Retour au catalogue

STARLINK-5027

ActifCommunicationsVLEO
NORAD 55370·PAYLOAD·🇺🇸 United States

Lancé Jan 26, 2023 depuis Cape Canaveral Space Force Station

Loading…

Prochains Passages (prochaines 24 heures)

TLE

FraisSource: CelesTrak SupGP

Époque: Sep 15, 2026, 02:41 UTC

1 55370C 23013AR  26258.11229167  .00033653  00000+0  12190-2 0  2583
2 55370  43.0022 331.6492 0001494 262.4913 127.7672 15.27557531    10

Suivez STARLINK-5027 en temps réel avec AllMySat

Download on the App Store